Billings, MT

11:04 PM MDT on September 24, 2017 (GMT -0600)
Billings Logan International

Weather History for KBIL - October, 2011

Change the Weather History Date:

Saturday, October 15, 2011

  Actual Average Record
Temperature  
Mean Temperature 43 °F 49 °F  
Max Temperature 48 °F 60 °F 84 °F (1958)
Min Temperature 37 °F 37 °F 24 °F (1992)
Degree Days  
Heating Degree Days 22 16  
Month to date heating degree days 145 210  
Since 1 July heating degree days 233 439  
Cooling Degree Days 0 0  
Month to date cooling degree days 22 0  
Year to date cooling degree days 734 633  
Moisture  
Dew Point 38 °F    
Average Humidity 80    
Maximum Humidity 92    
Minimum Humidity 67    
Precipitation  
Precipitation 0.12 in 0.05 in 0.96 in (1980)
Month to date precipitation 1.33 0.66  
Year to date precipitation 18.54 12.01  
Snow  
Snow 0.00 in 0.20 in 9.50 in (1980)
Month to date snowfall 0.0 1.8  
Since 1 July snowfall T 2.9  
Since 1 September snowfall 0.0 2.9  
Snow Depth 0.00 in    
Sea Level Pressure  
Sea Level Pressure 30.00 in    
Wind  
Wind Speed 6 mph (NW)    
Max Wind Speed 26 mph    
Max Gust Speed 30 mph    
Visibility 10 miles    
Events Rain    
T = Trace of Precipitation, MM = Missing Value Source: NWS Daily Summary

Daily Weather History Graph

Daily Weather History Graph

Search for Another Location

Airport or City:

Trip Planner

Search our weather history database for the weather conditions in past years. The results will help you decide how hot, cold, wet, or windy it might be!

Date:

Astronomy

Oct. 15, 2011 Rise Set
Actual Time 7:30 AM MDT 6:28 PM MDT
Civil Twilight 7:00 AM MDT 6:58 PM MDT
Nautical Twilight 6:25 AM MDT 7:33 PM MDT
Astronomical Twilight 5:51 AM MDT 8:07 PM MDT
Moon 8:14 PM MDT (10/15) 11:10 AM MDT (10/15)
Length of Visible Light 11h 58m
Length of Day
10h 58m
Waning Gibbous, 88% of the Moon is Illuminated
Oct 15
Waning Gibbous
Oct 19
Last Quarter
Oct 26
New
Nov 2
First Quarter
Nov 10
Full

Hourly Weather History & Observations

Time (MDT) Temp. Windchill Dew Point Humidity Pressure Visibility Wind Dir Wind Speed Gust Speed Precip Events Conditions
12:53 AM 42.1 °F 37.7 °F 32.0 °F 67% 29.95 in 10.0 mi South 6.9 mph - N/A   Scattered Clouds
1:53 AM 39.0 °F 31.8 °F 33.1 °F 79% 29.94 in 10.0 mi SW 11.5 mph - N/A   Scattered Clouds
2:53 AM 39.9 °F 33.9 °F 32.0 °F 73% 29.94 in 10.0 mi NNW 9.2 mph - N/A   Mostly Cloudy
3:53 AM 37.9 °F 34.4 °F 32.0 °F 79% 29.92 in 10.0 mi NW 4.6 mph - N/A   Scattered Clouds
4:53 AM 39.0 °F 35.7 °F 33.1 °F 79% 29.91 in 10.0 mi SW 4.6 mph - N/A   Scattered Clouds
5:53 AM 39.9 °F 36.7 °F 33.1 °F 77% 29.90 in 10.0 mi West 4.6 mph - N/A   Mostly Cloudy
6:53 AM 37.4 °F 30.3 °F 33.8 °F 87% 29.85 in 10.0 mi SSW 10.4 mph - N/A   Mostly Cloudy
7:53 AM 37.4 °F 32.8 °F 33.8 °F 87% 29.83 in 10.0 mi SSW 5.8 mph - N/A   Mostly Cloudy
8:53 AM 41.0 °F 34.7 °F 35.1 °F 79% 29.92 in 10.0 mi NW 10.4 mph - 0.00 in   Overcast
9:53 AM 44.6 °F 42.2 °F 39.2 °F 81% 29.90 in 10.0 mi NNW 4.6 mph - N/A   Mostly Cloudy
10:53 AM 45.0 °F 40.1 °F 39.0 °F 80% 29.95 in 10.0 mi NNE 9.2 mph - 0.00 in   Mostly Cloudy
11:53 AM 46.9 °F - 39.9 °F 77% 29.97 in 10.0 mi NNE 16.1 mph - 0.00 in   Mostly Cloudy
12:53 PM 48.0 °F - 39.9 °F 74% 29.99 in 10.0 mi NNE 12.7 mph 18.4 mph 0.00 in Rain Light Rain
1:53 PM 46.0 °F 41.4 °F 39.9 °F 79% 30.01 in 10.0 mi NNE 9.2 mph - 0.01 in Rain Light Rain
2:53 PM 45.0 °F 41.2 °F 42.1 °F 90% 30.02 in 10.0 mi NNE 6.9 mph - 0.03 in Rain Light Rain
3:33 PM 44.6 °F - 42.8 °F 93% 30.01 in 8.0 mi Calm Calm - 0.04 in Rain Rain
3:53 PM 44.6 °F 42.2 °F 42.8 °F 93% 30.01 in 10.0 mi ESE 4.6 mph - N/A Rain Light Rain
4:53 PM 44.1 °F - 42.1 °F 93% 30.07 in 10.0 mi Calm Calm - 0.01 in Rain Light Rain
5:53 PM 44.1 °F 42.5 °F 43.0 °F 96% 30.08 in 10.0 mi South 3.5 mph - 0.02 in Rain Light Rain
6:53 PM 44.1 °F - 41.0 °F 89% 30.09 in 10.0 mi Calm Calm - 0.00 in   Overcast
7:53 PM 45.0 °F 43.5 °F 41.0 °F 86% 30.10 in 10.0 mi South 3.5 mph - 0.00 in Rain Light Rain
8:53 PM 44.1 °F - 42.1 °F 93% 30.12 in 10.0 mi Calm Calm - 0.00 in   Mostly Cloudy
9:53 PM 44.1 °F - 41.0 °F 89% 30.14 in 10.0 mi Calm Calm - N/A   Overcast
10:53 PM 44.1 °F 41.5 °F 39.9 °F 85% 30.15 in 10.0 mi ENE 4.6 mph - N/A   Overcast
11:53 PM 44.1 °F 42.5 °F 39.9 °F 85% 30.15 in 10.0 mi Variable 3.5 mph - N/A   Overcast